[keps] orb07017.amsat
Ray Hoad
r.hoad at att.net
Wed Jan 17 18:29:47 PST 2007
SB KEPS @ AMSAT $ORB07017.O
Orbital Elements 07017.OSCAR
HR AMSAT ORBITAL ELEMENTS FOR OSCAR SATELLITES
FROM WA5QGD FORT WORTH,TX January 17, 2007
Send SUBSCRIBE KEPS/UNSUBSCRIBE KEPS to majordomo at amsat.org only
BID: ORB07017.O
TO ALL RADIO AMATEURS BT
Satellite: AO-07
Catalog number: 07530
Epoch time: 07016.58904103
Element set: 0783
Inclination: 101.5394 deg
RA of node: 058.9349 deg
Eccentricity: 0.0012057
Arg of perigee: 190.8969 deg
Mean anomaly: 169.1845 deg
Mean motion: 12.53572355 rev/day
Decay rate: -2.8e-07 rev/day^2
Epoch rev: 47212
Checksum: 312
Satellite: AO-10
Catalog number: 14129
Epoch time: 07016.02965165
Element set: 0351
Inclination: 027.0185 deg
RA of node: 296.2920 deg
Eccentricity: 0.6049988
Arg of perigee: 350.1253 deg
Mean anomaly: 001.9519 deg
Mean motion: 02.05870470 rev/day
Decay rate: -1.75e-06 rev/day^2
Epoch rev: 17743
Checksum: 295
Satellite: UO-11
Catalog number: 14781
Epoch time: 07016.63272215
Element set: 0277
Inclination: 098.2011 deg
RA of node: 036.3209 deg
Eccentricity: 0.0008340
Arg of perigee: 303.6236 deg
Mean anomaly: 056.4167 deg
Mean motion: 14.79513167 rev/day
Decay rate: 3.44e-06 rev/day^2
Epoch rev: 22732
Checksum: 273
Satellite: RS-10/11
Catalog number: 18129
Epoch time: 07016.95921596
Element set: 0215
Inclination: 082.9250 deg
RA of node: 170.0352 deg
Eccentricity: 0.0010612
Arg of perigee: 214.8925 deg
Mean anomaly: 145.1534 deg
Mean motion: 13.72783413 rev/day
Decay rate: 3.0e-07 rev/day^2
Epoch rev: 98048
Checksum: 282
Satellite: RS-15
Catalog number: 23439
Epoch time: 07016.94059694
Element set: 0037
Inclination: 064.8185 deg
RA of node: 251.5204 deg
Eccentricity: 0.0163849
Arg of perigee: 217.2315 deg
Mean anomaly: 141.7156 deg
Mean motion: 11.27551479 rev/day
Decay rate: -3.9e-07 rev/day^2
Epoch rev: 49664
Checksum: 320
Satellite: FO-29
Catalog number: 24278
Epoch time: 07016.97049713
Element set: 0412
Inclination: 098.5292 deg
RA of node: 357.0793 deg
Eccentricity: 0.0351291
Arg of perigee: 115.1845 deg
Mean anomaly: 248.6148 deg
Mean motion: 13.52927180 rev/day
Decay rate: 6.7e-07 rev/day^2
Epoch rev: 51445
Checksum: 324
Satellite: SO-33
Catalog number: 25509
Epoch time: 07016.36893509
Element set: 842
Inclination: 031.4327 deg
RA of node: 004.0920 deg
Eccentricity: 0.0355302
Arg of perigee: 180.1308 deg
Mean anomaly: 179.9259 deg
Mean motion: 14.28143441 rev/day
Decay rate: -9.1e-07 rev/day^2
Epoch rev: 42953
Checksum: 291
Satellite: AO-40
Catalog number: 26609
Epoch time: 07015.47705362
Element set: 827
Inclination: 004.9026 deg
RA of node: 184.7945 deg
Eccentricity: 0.7998738
Arg of perigee: 258.4976 deg
Mean anomaly: 012.1864 deg
Mean motion: 01.25586078 rev/day
Decay rate: -9.2e-07 rev/day^2
Epoch rev: 2852
Checksum: 346
Satellite: VO-52
Catalog number: 28650
Epoch time: 07016.79708075
Element set: 531
Inclination: 097.8506 deg
RA of node: 090.7892 deg
Eccentricity: 0.0027774
Arg of perigee: 028.7381 deg
Mean anomaly: 331.5322 deg
Mean motion: 14.81251147 rev/day
Decay rate: 8.5e-07 rev/day^2
Epoch rev: 9200
Checksum: 308
/EX
SB KEPS @ AMSAT $ORB07017.D
Orbital Elements 07017.MICROS
HR AMSAT ORBITAL ELEMENTS FOR THE MICROSATS
FROM WA5QGD FORT WORTH,TX January 17, 2007
Send SUBSCRIBE KEPS/UNSUBSCRIBE KEPS to majordomo at amsat.org only
BID: ORB07017.D
TO ALL RADIO AMATEURS BT
Satellite: AO-16
Catalog number: 20439
Epoch time: 07016.85999032
Element set: 0945
Inclination: 098.1905 deg
RA of node: 019.8073 deg
Eccentricity: 0.0010065
Arg of perigee: 280.7366 deg
Mean anomaly: 079.2682 deg
Mean motion: 14.31747414 rev/day
Decay rate: 2.4e-07 rev/day^2
Epoch rev: 88689
Checksum: 332
Satellite: LO-19
Catalog number: 20442
Epoch time: 07017.55272564
Element set: 875
Inclination: 098.1819 deg
RA of node: 029.9587 deg
Eccentricity: 0.0011041
Arg of perigee: 276.8813 deg
Mean anomaly: 083.1115 deg
Mean motion: 14.31988978 rev/day
Decay rate: 1.4e-07 rev/day^2
Epoch rev: 88713
Checksum: 331
Satellite: AO-27
Catalog number: 22825
Epoch time: 07016.83807390
Element set: 0595
Inclination: 098.3106 deg
RA of node: 353.4804 deg
Eccentricity: 0.0008450
Arg of perigee: 356.0246 deg
Mean anomaly: 004.0871 deg
Mean motion: 14.29197027 rev/day
Decay rate: 4.2e-07 rev/day^2
Epoch rev: 69387
Checksum: 308
Satellite: IO-26
Catalog number: 22826
Epoch time: 07016.49140319
Element set: 0290
Inclination: 098.3041 deg
RA of node: 354.2826 deg
Eccentricity: 0.0009103
Arg of perigee: 354.3828 deg
Mean anomaly: 005.7249 deg
Mean motion: 14.29442193 rev/day
Decay rate: 2.9e-07 rev/day^2
Epoch rev: 69390
Checksum: 300
Satellite: PO-28
Catalog number: 22829
Epoch time: 07016.87128425
Element set: 0571
Inclination: 098.2930 deg
RA of node: 355.8309 deg
Eccentricity: 0.0009364
Arg of perigee: 326.6176 deg
Mean anomaly: 033.4407 deg
Mean motion: 14.30140375 rev/day
Decay rate: 5.5e-07 rev/day^2
Epoch rev: 69418
Checksum: 312
Satellite: GO-32
Catalog number: 25397
Epoch time: 07016.57595555
Element set: 0208
Inclination: 098.4399 deg
RA of node: 070.2550 deg
Eccentricity: 0.0000792
Arg of perigee: 357.8653 deg
Mean anomaly: 002.2527 deg
Mean motion: 14.23118530 rev/day
Decay rate: -4.9e-07 rev/day^2
Epoch rev: 44259
Checksum: 312
Satellite: MO-46
Catalog number: 26548
Epoch time: 07016.87305593
Element set: 0700
Inclination: 064.5586 deg
RA of node: 290.7625 deg
Eccentricity: 0.0032521
Arg of perigee: 217.2011 deg
Mean anomaly: 142.6844 deg
Mean motion: 14.83085876 rev/day
Decay rate: -2.2e-07 rev/day^2
Epoch rev: 34110
Checksum: 292
Satellite: NO-44
Catalog number: 26931
Epoch time: 07016.89089199
Element set: 0500
Inclination: 067.0506 deg
RA of node: 177.2150 deg
Eccentricity: 0.0005233
Arg of perigee: 279.4918 deg
Mean anomaly: 080.5621 deg
Mean motion: 14.29468603 rev/day
Decay rate: -6.2e-07 rev/day^2
Epoch rev: 27647
Checksum: 312
Satellite: SO-50
Catalog number: 27607
Epoch time: 07016.81469831
Element set: 0221
Inclination: 064.5566 deg
RA of node: 184.5966 deg
Eccentricity: 0.0037840
Arg of perigee: 052.7132 deg
Mean anomaly: 307.7393 deg
Mean motion: 14.71219428 rev/day
Decay rate: 5.6e-07 rev/day^2
Epoch rev: 21885
Checksum: 316
Satellite: CO-55
Catalog number: 27844
Epoch time: 07016.59356470
Element set: 940
Inclination: 098.7208 deg
RA of node: 026.9582 deg
Eccentricity: 0.0010363
Arg of perigee: 164.4172 deg
Mean anomaly: 195.7326 deg
Mean motion: 14.20485087 rev/day
Decay rate: -4.8e-07 rev/day^2
Epoch rev: 18395
Checksum: 327
Satellite: CO-57
Catalog number: 27848
Epoch time: 07016.59498492
Element set: 0904
Inclination: 098.7189 deg
RA of node: 026.2128 deg
Eccentricity: 0.0010095
Arg of perigee: 167.9322 deg
Mean anomaly: 192.2076 deg
Mean motion: 14.20308067 rev/day
Decay rate: 1.17e-06 rev/day^2
Epoch rev: 18393
Checksum: 327
Satellite: AO-51
Catalog number: 28375
Epoch time: 07016.73292781
Element set: 725
Inclination: 098.1352 deg
RA of node: 063.6895 deg
Eccentricity: 0.0083552
Arg of perigee: 281.9655 deg
Mean anomaly: 077.2176 deg
Mean motion: 14.40551793 rev/day
Decay rate: 1.9e-07 rev/day^2
Epoch rev: 13390
Checksum: 328
Satellite: CO-56
Catalog number: 28941
Epoch time: 07016.86856279
Element set: 0334
Inclination: 098.1559 deg
RA of node: 061.6920 deg
Eccentricity: 0.0250286
Arg of perigee: 086.3742 deg
Mean anomaly: 276.6079 deg
Mean motion: 15.33455694 rev/day
Decay rate: 2.0801e-04 rev/day^2
Epoch rev: 05019
Checksum: 340
Satellite: HO-59
Catalog number: 29484
Epoch time: 07017.04262462
Element set: 159
Inclination: 098.3119 deg
RA of node: 045.1084 deg
Eccentricity: 0.0251429
Arg of perigee: 083.3162 deg
Mean anomaly: 279.7146 deg
Mean motion: 15.39350580 rev/day
Decay rate: 3.0232e-04 rev/day^2
Epoch rev: 1773
Checksum: 307
Satellite: NO-60
Catalog number: 29661
Epoch time: 07016.77891628
Element set: 37
Inclination: 051.6404 deg
RA of node: 164.8737 deg
Eccentricity: 0.0013452
Arg of perigee: 117.5366 deg
Mean anomaly: 242.7041 deg
Mean motion: 15.84984521 rev/day
Decay rate: 5.3018e-04 rev/day^2
Epoch rev: 424
Checksum: 304
Satellite: NO-61
Catalog number: 29667
Epoch time: 07016.86393964
Element set: 25
Inclination: 051.6345 deg
RA of node: 164.6746 deg
Eccentricity: 0.0017591
Arg of perigee: 114.1218 deg
Mean anomaly: 246.1630 deg
Mean motion: 15.82842339 rev/day
Decay rate: 1.6582e-04 rev/day^2
Epoch rev: 399
Checksum: 323
/EX
SB KEPS @ AMSAT $ORB07017.W
Orbital Elements 07017.WEATHER
HR AMSAT ORBITAL ELEMENTS FOR WEATHER SATELLITES
FROM WA5QGD FORT WORTH,TX January 17, 2007
Send SUBSCRIBE KEPS/UNSUBSCRIBE KEPS to majordomo at amsat.org only
BID: ORB07017.W
TO ALL RADIO AMATEURS BT
Satellite: NOAA-10
Catalog number: 16969
Epoch time: 07016.88483107
Element set: 0505
Inclination: 098.7546 deg
RA of node: 033.9116 deg
Eccentricity: 0.0011725
Arg of perigee: 247.4109 deg
Mean anomaly: 112.5829 deg
Mean motion: 14.27314546 rev/day
Decay rate: -1.00e-06 rev/day^2
Epoch rev: 05764
Checksum: 299
Satellite: NOAA-11
Catalog number: 19531
Epoch time: 07016.86383184
Element set: 0481
Inclination: 098.8187 deg
RA of node: 107.8970 deg
Eccentricity: 0.0012401
Arg of perigee: 100.8643 deg
Mean anomaly: 259.3917 deg
Mean motion: 14.14833580 rev/day
Decay rate: 2.00e-06 rev/day^2
Epoch rev: 94475
Checksum: 306
Satellite: NOAA-12
Catalog number: 21263
Epoch time: 07016.76447475
Element set: 0976
Inclination: 098.7456 deg
RA of node: 014.3120 deg
Eccentricity: 0.0012843
Arg of perigee: 183.9638 deg
Mean anomaly: 176.1434 deg
Mean motion: 14.25519991 rev/day
Decay rate: -7.2e-07 rev/day^2
Epoch rev: 81467
Checksum: 322
Satellite: MET-3/5
Catalog number: 21655
Epoch time: 07016.91688811
Element set: 0284
Inclination: 082.5563 deg
RA of node: 109.8273 deg
Eccentricity: 0.0012567
Arg of perigee: 222.8753 deg
Mean anomaly: 137.1391 deg
Mean motion: 13.17007998 rev/day
Decay rate: 5.1e-07 rev/day^2
Epoch rev: 74149
Checksum: 318
